DELTA 1 DEB, 10184

Orbit data source: Space-Track

DELTA 1 DEB, 10184 is space debris in LEO originally from a launch on Thu, 14 Jul 1977 UTC launched from the Air Force Eastern Test Range (AFETR). Debris objects in space refer to the collection of defunct objects orbiting the Earth. Examples of debris include non-operational satellites, rocket bodies, and fragments generated from explosions, collisions, or faulty payload assembly.

Loading next visibility...
Identifier
10184, 1977-065N
Orbit
LEO
Country
Flag of USUS
Related business
Manufacturer
Unknown
Mission
Spacecraft
Bus & Motor
Unknown
Mass
Unknown
Launch date (UTC)
1977-07-14 (49 years ago)
Launch vehicle
Unknown
Launch site
Air Force Eastern Test Range (AFETR)
Object type
Payload
Rocket body
Debris
Shape & HBR
Unknown shape, 1.7 m
Radar Cross Section
Large (>1 m²)

Expand to show TLE details & history
Last TLE update: 11 hours ago

TLE from 11 hours ago
0 DELTA 1 DEB
1 10184U 77065N   26263.00043841  .00000390  00000-0  66515-4 0  9997
2 10184  29.0785 148.6657 0754662 302.1638  50.7875 13.49657435380085
Epoch: 2026-09-20T00:00Z
TLE epoch observation values (Epoch: 2026-09-20T00:00:37.878Z)
Latitude
0.00002°
Longitude
149.60701°
Altitude
743.886 km
Speed
7.648 km/s
True Right ascension
09h 54m 39s
True Declination
0° 00' 00"
Sunlit
Object was in daylight at epoch
Visualization orbit readout
Latitude
Unknown
Longitude
Unknown
Altitude
Unknown
Speed
Unknown
Apparent Right ascension
Unknown
Apparent Declination
Unknown
Sunlit
N/A
Visualization observer readout
Local Sidereal Time
03:42:34
Azimuth
Unknown
Elevation
Unknown
Doppler factor
Unknown
Orbital elements
Apogee altitude
1,640.013 km
Perigee altitude
514.735 km
Semi-major axis
7,455.511 km
Eccentricity
0.07547
Inclination
29.0785°
RAAN
148.6657°
Arg. of periapsis
302.1638°
True anomaly
57.89324°
Mean anomaly
50.7875°
Eccentric anomaly
54.29881°
Mean motion
3.37153 °/min
Orbital period
106.78 mins
BSTAR
0.000066515
Loading maneuver chart data...
Computing Atmospheric mass density...
Loading historical data...
Loading historical data...
Loading historical data...
Loading historical data...
Loading historical data...
Loading historical data...
Loading historical data...

Documentation

Showing up to 5 results
|